This is the latest recevied weather packets stored in our database for station/object IW1RCO-13. If no packets are shown the sender has not sent any weather packets the latest 10 day(s).
| Time | Temp. | Humidity | Pressure | Rain* | Wind** | Luminosity | Snow |
|---|---|---|---|---|---|---|---|
| 1788492872 | 18.89° C | 77% | 1019.6 hPa | - | - | - | - |
| 1788489567 | 18.89° C | 80% | 1019.5 hPa | - | - | - | - |
| 1788489270 | 19.44° C | 80% | 1019 hPa | - | - | - | - |
| 1788488967 | 19.44° C | 80% | 1019.4 hPa | - | - | - | - |
| 1788488670 | 19.44° C | 81% | 1019.6 hPa | - | - | - | - |
| 1788488374 | 19.44° C | 81% | 1019.2 hPa | - | - | - | - |
| 1788488070 | 20° C | 81% | 1019.3 hPa | - | - | - | - |
| 1788487773 | 20° C | 80% | 1019.2 hPa | - | - | - | - |
| 1788487469 | 20.56° C | 80% | 1019.6 hPa | - | - | - | - |
| 1788487172 | 20° C | 80% | 1019.5 hPa | - | - | - | - |
| 1788486869 | 20° C | 82% | 1019.7 hPa | - | - | - | - |
| 1788486572 | 20° C | 83% | 1019.8 hPa | - | - | - | - |
| 1788486269 | 20° C | 83% | 1019.3 hPa | - | - | - | - |
| 1788485972 | 20° C | 83% | 1018.8 hPa | - | - | - | - |
| 1788485668 | 20° C | 83% | 1019.6 hPa | - | - | - | - |
| 1788485372 | 20° C | 83% | 1019.4 hPa | - | - | - | - |
| 1788485068 | 20° C | 83% | 1019.6 hPa | - | - | - | - |
| 1788484771 | 20° C | 83% | 1019.5 hPa | - | - | - | - |
| 1788484468 | 20° C | 82% | 1019.1 hPa | - | - | - | - |
| 1788484171 | 20° C | 82% | 1019.2 hPa | - | - | - | - |
| 1788483868 | 20° C | 82% | 1019.2 hPa | - | - | - | - |
| 1788483267 | 20.56° C | 79% | 1019.5 hPa | - | - | - | - |
| 1788482971 | 20.56° C | 78% | 1019.5 hPa | - | - | - | - |
| 1788482675 | 20.56° C | 77% | 1018.7 hPa | - | - | - | - |
| 1788482371 | 20° C | 76% | 1019.5 hPa | - | - | - | - |
* Rain since midnight (hover to see other rain measurements)
** Current wind speed in m/s (hover to see current wind gust speed)